SL-14 R/B, 23005

Orbit data source: Space-Track

SL-14 R/B, 23005 is space debris in LEO originally from a launch on Sat, 12 Feb 1994 UTC launched from the Plesetsk Missile And Space Complex (PKMTR). Debris objects in space refer to the collection of defunct objects orbiting the Earth. Examples of debris include non-operational satellites, rocket bodies, and fragments generated from explosions, collisions, or faulty payload assembly.

Loading next visibility...
Identifier
23005, 1994-011G
Orbit
LEO
Country
Flag of CISCIS
Related business
Manufacturer
Yuzhnoe
Mission
Spacecraft
Bus & Motor
S5M, Unknown motor
Mass
1,600 kg wet, 1,600 kg dry
Launch date (UTC)
1994-02-12 (32 years ago)
Launch vehicle
Unknown
Launch site
Plesetsk Missile And Space Complex (PKMTR)
Object type
Payload
Rocket body
Debris
Shape & HBR
Cyl, 1.4 m
Radar Cross Section
7.351 m², Large (>1 m²)

Expand to show TLE details & history
Last TLE update: 18 hours ago

TLE from 18 hours ago
0 SL-14 R/B
1 23005U 94011G   26037.20523280  .00000014  00000-0  18862-4 0  9999
2 23005  82.5805 145.3960 0041771  47.8541 328.2177 12.55221929465325
Epoch: 2026-02-06T04:55Z
TLE epoch observation values (Epoch: 2026-02-06T04:55:32.113Z)
Latitude
15.66291°
Longitude
-62.75208°
Altitude
1,417.048 km
Speed
7.166 km/s
True Right ascension
09h 49m 54s
True Declination
15° 34' 53"
Sunlit
Object was in full shadow at epoch
Visualization orbit readout
Latitude
Unknown
Longitude
Unknown
Altitude
Unknown
Speed
Unknown
Apparent Right ascension
Unknown
Apparent Declination
Unknown
Sunlit
N/A
Visualization observer readout
Local Sidereal Time
01:08:06
Azimuth
Unknown
Elevation
Unknown
Doppler factor
Unknown
Orbital elements
Apogee altitude
1,472.717 km
Perigee altitude
1,407.402 km
Semi-major axis
7,818.196 km
Eccentricity
0.00418
Inclination
82.5805°
RAAN
145.396°
Arg. of periapsis
47.8541°
True anomaly
327.96447°
Mean anomaly
328.2177°
Eccentric anomaly
328.0912°
Mean motion
3.13966 °/min
Orbital period
114.66 mins
BSTAR
0.000018862
Loading maneuver chart data...
Computing Atmospheric mass density...
Loading historical data...
Loading historical data...
Loading historical data...
Loading historical data...
Loading historical data...
Loading historical data...
Loading historical data...

Documentation

Showing up to 5 results
|